Weather History for Cherry Point, NC

Change the Weather History Date:

Saturday, March 1, 2014

  Actual Average Record
Temperature  
Mean Temperature 46 °F -  
Max Temperature 57 °F 58 °F 82 °F (2012)
Min Temperature 34 °F 38 °F 23 °F (2002)
Degree Days  
Heating Degree Days 20    
Moisture  
Dew Point 32 °F    
Average Humidity 65    
Maximum Humidity 86    
Minimum Humidity 47    
Precipitation  
Precipitation 0.00 in - - ()
Sea Level Pressure  
Sea Level Pressure 30.27 in    
Wind  
Wind Speed 10 mph (North)    
Max Wind Speed 14 mph    
Max Gust Speed -    
Visibility 10 miles    
Events      
Averages and records for this station are not official NWS values.
T = Trace of Precipitation, MM = Missing Value Source: NWS Daily Summary

Daily Weather History Graph

Daily Weather History Graph

Search for Another Location

Airport:

Trip Planner

Search our weather history database for the weather conditions in past years. The results will help you decide how hot, cold, wet, or windy it might be!

Date:

Astronomy

Mar. 01, 2014 Rise Set
Actual Time 6:36 AM EST 6:03 PM EST
Civil Twilight 6:11 AM EST 6:28 PM EST
Nautical Twilight 5:42 AM EST 6:57 PM EST
Astronomical Twilight 5:12 AM EST 7:27 PM EST
Moon 6:31 AM EST (3/1) 6:44 PM EST (3/1)
Length of Visible Light 12h 17m
Length of Day
11h 26m
New Moon, 0% of the Moon is Illuminated
Mar 1
New Moon
Mar 8
First Quarter
Mar 16
Full
Mar 23
Last Quarter
Mar 30
New

Hourly Weather History & Observations

Time (EST) Temp. Windchill Dew Point Humidity Pressure Visibility Wind Dir Wind Speed Gust Speed Precip Events Conditions
12:01 AM 34.0 °F 25.5 °F 25.0 °F 70% 30.28 in 10.0 mi NNE 11.5 mph - N/A   Overcast
12:54 AM 35.1 °F 26.4 °F 25.0 °F 67% 30.27 in 10.0 mi NNE 12.7 mph - N/A   Overcast
1:54 AM 35.1 °F 26.9 °F 27.0 °F 72% 30.27 in 10.0 mi North 11.5 mph - N/A   Overcast
2:54 AM 36.0 °F 28.0 °F 27.0 °F 70% 30.28 in 10.0 mi North 11.5 mph - N/A   Overcast
3:35 AM 35.1 °F 25.9 °F 26.1 °F 70% 30.28 in 10.0 mi North 13.8 mph - N/A   Overcast
3:54 AM 35.1 °F 26.9 °F 27.0 °F 72% 30.28 in 10.0 mi North 11.5 mph - N/A   Overcast
4:54 AM 35.1 °F 27.9 °F 26.1 °F 70% 30.28 in 10.0 mi North 9.2 mph - N/A   Overcast
5:54 AM 36.0 °F 29.6 °F 27.0 °F 70% 30.30 in 10.0 mi North 8.1 mph - N/A   Overcast
6:54 AM 35.1 °F 27.9 °F 26.1 °F 70% 30.29 in 10.0 mi North 9.2 mph - N/A   Mostly Cloudy
7:03 AM 36.0 °F 29.0 °F 27.0 °F 70% 30.30 in 10.0 mi North 9.2 mph - N/A   Mostly Cloudy
7:54 AM 37.0 °F 29.8 °F 27.0 °F 67% 30.31 in 10.0 mi North 10.4 mph - N/A   Scattered Clouds
8:54 AM 41.0 °F 34.3 °F 28.9 °F 62% 30.33 in 10.0 mi North 11.5 mph - N/A   Mostly Cloudy
9:54 AM 43.0 °F 37.7 °F 30.0 °F 60% 30.33 in 10.0 mi North 9.2 mph - N/A   Mostly Cloudy
10:54 AM 48.0 °F - 33.1 °F 56% 30.31 in 10.0 mi NNE 11.5 mph - N/A   Scattered Clouds
11:54 AM 53.1 °F - 36.0 °F 52% 30.28 in 10.0 mi NNE 10.4 mph - N/A   Partly Cloudy
12:54 PM 55.9 °F - 37.0 °F 49% 30.27 in 10.0 mi NW 8.1 mph - N/A   Mostly Cloudy
1:54 PM 55.9 °F - 37.0 °F 49% 30.25 in 10.0 mi North 11.5 mph - N/A   Overcast
2:54 PM 54.0 °F - 36.0 °F 51% 30.24 in 10.0 mi NNW 6.9 mph - N/A   Overcast
3:54 PM 57.0 °F - 37.0 °F 47% 30.22 in 10.0 mi NNW 4.6 mph - N/A   Mostly Cloudy
4:54 PM 55.0 °F - 37.9 °F 53% 30.23 in 10.0 mi NNW 5.8 mph - N/A   Mostly Cloudy
5:54 PM 54.0 °F - 37.9 °F 55% 30.25 in 10.0 mi NNW 5.8 mph - N/A   Mostly Cloudy
6:54 PM 51.1 °F - 37.9 °F 61% 30.25 in 10.0 mi North 4.6 mph - N/A   Mostly Cloudy
7:54 PM 50.0 °F - 39.0 °F 66% 30.25 in 10.0 mi North 3.5 mph - N/A   Partly Cloudy
8:54 PM 45.0 °F 43.5 °F 37.9 °F 76% 30.26 in 10.0 mi NNE 3.5 mph - N/A   Clear
9:54 PM 42.1 °F 39.2 °F 37.0 °F 82% 30.26 in 10.0 mi ESE 4.6 mph - N/A   Clear
10:54 PM 41.0 °F - 37.0 °F 86% 30.25 in 10.0 mi Calm Calm - N/A   Clear
11:54 PM 41.0 °F - 37.0 °F 86% 30.24 in 10.0 mi Calm Calm - N/A   Clear